Погода в Эскишехире

Турция     39°46′50″N   30°30′40″E
темп.,
°C
ветер,
м/с
пор.,
м/с
влажн.,
%
обл.,
%
осадки,
мм/ч
давл.,
гПа
погр.,
м
28 октября, чт
чт2800:00+7сз22660 0.0 102413
03:00+5сз22840 0.0 102412
06:00+4сз22942 0.0 102413
09:00+6ссз228841 0.0 1025214
12:00+11ссз22580 0.0 1023595
15:00+14с33450 0.0 1020861
18:00+11сз45620 0.0 102193
21:00+7сз35830 0.0 1022105
29 октября, пт
пт2900:00+6сз229411 0.0 102340
03:00+5сз239251 0.0 102398
06:00+6ссз228756 0.0 1022226
09:00+7с227838 0.0 1023362
12:00+11в23580 0.0 1021676
15:00+15в34430 0.0 10181159
18:00+12ссв33510 0.0 101825
21:00+9ссв11630 0.0 102011
30 октября, сб
сб3000:00+8с11730 0.0 102110
03:00+7всв11750 0.0 102110
06:00+6всв22730 0.0 102110
09:00+9в24610 0.0 1021151
12:00+14вюв55411 0.0 1020896
15:00+16вюв44365 0.0 10181404
18:00+13в33445 0.0 101839
21:00+10всв225114 0.0 101911
31 октября, вс
вс3100:00+9в225410 0.0 102010
03:00+9в225686 0.0 102013
06:00+9в235676 0.0 102041
09:00+10в235580 0.0 1020143
12:00+16вюв45406 0.0 1019872
15:00+18вюв45367 0.0 10161491
18:00+14ююв225059 0.2 101731
21:00+11св1171100 0.9 101823
1 ноября, пн
пн100:00+11юв2478100 1.6 1018137
03:00+10ююз1190100 3.0 101814
06:00+9юв119013 0.5 101815
09:00+10в018190 0.7 101778
12:00+16юз35454 0.3 10161623
15:00+17зюз573193 0.3 10142741
18:00+13сз225764 0.0 101534
21:00+10з22715 0.0 101715